User: anonymous   Login
Location: St. Malo Provincial Park
(49.3214°N, 96.9305°W)
Time: 18:15:19
(UTC-06:00)
Language:

Iridium 6 - Orbit

View from above orbital plane
View from above orbital plane
View from above satellite
View from above satellite

Ground track
Ground track

The orbit data is extracted from the following two-line orbital elements,

1 24794U 97020C   17055.26859854  .00000149  00000-0  46247-4 0  9990
2 24794  86.3996   6.1009 0002177  84.7644 275.3800 14.34218164 37015
Epoch (UTC): 24 February 2017 06:26:46
Eccentricity: 0.0002177
inclination: 86.3996°
perigee height: 776 km
apogee height: 779 km
right ascension of ascending node: 6.1009°
argument of perigee: 84.7644°
revolutions per day: 14.34218164
mean anomaly at epoch: 275.3800°
orbit number at epoch: 3701

The dashed part of the orbit path shows where the satellite is in the earth's shadow,  

DLR